| time (UTC) | temp F | wind direction | speed MPH | gust MPH | rain 1hr in | rain 24hr in | rain mn in | humidity % | barometer mb |
| 20260510010116 | 84 | 78 | 9.0 | 15.0 | 0.00 | 0.02 | 0.02 | 82 | 1009.2 |
| 20260510004516 | 84 | 76 | 3.0 | 7.0 | 0.00 | 0.02 | 0.02 | 81 | 1009.2 |
| 20260510003016 | 85 | 73 | 4.0 | 8.0 | 0.00 | 0.02 | 0.02 | 79 | 1009.1 |
| 20260510001515 | 85 | 94 | 4.0 | 8.0 | 0.00 | 0.02 | 0.02 | 77 | 1009.0 |
| 20260510000114 | 85 | 84 | 4.0 | 8.0 | 0.00 | 0.02 | 0.02 | 77 | 1008.9 |
| 20260509234528 | 85 | 63 | 4.0 | 6.0 | 0.00 | 0.02 | 0.02 | 76 | 1008.6 |
| 20260509233013 | 85 | 26 | 2.0 | 5.0 | 0.00 | 0.02 | 0.02 | 76 | 1008.6 |
| 20260509231516 | 85 | 63 | 2.0 | 9.0 | 0.00 | 0.02 | 0.02 | 76 | 1008.6 |
| 20260509230012 | 87 | 41 | 4.0 | 11.0 | 0.00 | 0.02 | 0.02 | 75 | 1008.4 |
| 20260509224526 | 88 | 344 | 0.0 | 5.0 | 0.00 | 0.02 | 0.02 | 73 | 1008.4 |
| 20260509223010 | 90 | 295 | 2.0 | 4.0 | 0.00 | 0.02 | 0.02 | 71 | 1008.5 |
| 20260509221510 | 91 | 198 | 1.0 | 5.0 | 0.00 | 0.02 | 0.02 | 70 | 1008.3 |
| 20260509220009 | 91 | 302 | 3.0 | 10.0 | 0.00 | 0.02 | 0.02 | 70 | 1008.3 |
| 20260509214508 | 91 | 240 | 6.0 | 10.0 | 0.00 | 0.02 | 0.02 | 70 | 1008.2 |
| 20260509213006 | 91 | 261 | 4.0 | 10.0 | 0.00 | 0.02 | 0.02 | 71 | 1008.3 |
| 20260509211503 | 91 | 284 | 4.0 | 8.0 | 0.00 | 0.02 | 0.02 | 70 | 1008.8 |
| 20260509210104 | 90 | 226 | 2.0 | 4.0 | 0.00 | 0.02 | 0.02 | 72 | 1009.2 |
| 20260509204606 | 90 | 240 | 2.0 | 9.0 | 0.00 | 0.02 | 0.02 | 73 | 1009.2 |
| 20260509203101 | 89 | 211 | 2.0 | 7.0 | 0.00 | 0.02 | 0.02 | 74 | 1009.4 |
| 20260509201552 | 89 | 215 | 2.0 | 8.0 | 0.00 | 0.02 | 0.02 | 73 | 1009.8 |
| 20260509200050 | 88 | 246 | 5.0 | 10.0 | 0.00 | 0.02 | 0.02 | 73 | 1009.9 |
| 20260509194546 | 88 | 261 | 4.0 | 10.0 | 0.00 | 0.02 | 0.02 | 75 | 1010.0 |
| 20260509193045 | 88 | 249 | 5.0 | 10.0 | 0.00 | 0.02 | 0.02 | 76 | 1010.3 |
| 20260509191545 | 87 | 288 | 6.0 | 10.0 | 0.00 | 0.02 | 0.02 | 77 | 1010.7 |
| 20260509190041 | 87 | 296 | 2.0 | 7.0 | 0.00 | 0.02 | 0.02 | 79 | 1010.7 |
| 20260509184641 | 86 | 209 | 3.0 | 7.0 | 0.00 | 0.02 | 0.02 | 79 | 1011.0 |
| 20260509183038 | 85 | 281 | 1.0 | 5.0 | 0.00 | 0.02 | 0.02 | 82 | 1011.1 |
| 20260509181535 | 85 | 321 | 3.0 | 8.0 | 0.00 | 0.02 | 0.02 | 83 | 1011.3 |
| 20260509180053 | 84 | 319 | 2.0 | 9.0 | 0.00 | 0.02 | 0.02 | 85 | 1011.5 |
| 20260509174531 | 83 | 276 | 2.0 | 7.0 | 0.00 | 0.02 | 0.02 | 87 | 1011.5 |
| 20260509173032 | 83 | 292 | 4.0 | 9.0 | 0.00 | 0.02 | 0.02 | 88 | 1011.8 |
| 20260509171527 | 82 | 232 | 4.0 | 10.0 | 0.00 | 0.02 | 0.02 | 88 | 1011.9 |
| 20260509170039 | 81 | 230 | 4.0 | 8.0 | 0.00 | 0.02 | 0.02 | 90 | 1012.0 |
| 20260509164518 | 80 | 252 | 3.0 | 11.0 | 0.00 | 0.02 | 0.02 | 92 | 1012.0 |
| 20260509163023 | 79 | 261 | 3.0 | 9.0 | 0.00 | 0.02 | 0.02 | 95 | 1012.0 |
| 20260509161511 | 77 | 221 | 4.0 | 8.0 | 0.00 | 0.02 | 0.02 | 98 | 1011.9 |
| 20260509160008 | 76 | 163 | 3.0 | 6.0 | 0.00 | 0.02 | 0.02 | 100 | 1011.9 |
| 20260509154508 | 75 | 259 | 4.0 | 8.0 | 0.00 | 0.02 | 0.02 | 100 | 1011.9 |
| 20260509153003 | 74 | 217 | 2.0 | 4.0 | 0.00 | 0.02 | 0.02 | 100 | 1011.9 |
| 20260509151502 | 74 | 303 | 0.0 | 0.0 | 0.00 | 0.02 | 0.02 | 100 | 1012.0 |
| 20260509150002 | 74 | 305 | 0.0 | 4.0 | 0.00 | 0.02 | 0.02 | 100 | 1012.0 |
| 20260509144602 | 74 | 290 | 1.0 | 3.0 | 0.00 | 0.02 | 0.02 | 100 | 1012.0 |
| 20260509144501 | 74 | 290 | 1.0 | 3.0 | 0.00 | 0.02 | 0.02 | 100 | 1012.1 |
| 20260509143108 | 74 | 197 | 1.0 | 3.0 | 0.00 | 0.02 | 0.02 | 100 | 1012.3 |
| 20260509141559 | 74 | 191 | 1.0 | 6.0 | 0.00 | 0.02 | 0.02 | 100 | 1011.9 |
| 20260509140058 | 74 | 156 | 1.0 | 3.0 | 0.00 | 0.02 | 0.02 | 100 | 1011.6 |
| 20260509134557 | 74 | 5 | 2.0 | 4.0 | 0.00 | 0.02 | 0.02 | 100 | 1011.6 |
| 20260509133106 | 74 | 98 | 3.0 | 8.0 | 0.00 | 0.02 | 0.02 | 100 | 1011.2 |
| 20260509131554 | 73 | 141 | 0.0 | 3.0 | 0.01 | 0.02 | 0.02 | 100 | 1011.1 |
| 20260509130052 | 73 | 116 | 0.0 | 3.0 | 0.02 | 0.02 | 0.02 | 100 | 1011.4 |
| 20260509124550 | 73 | 100 | 0.0 | 2.0 | 0.02 | 0.02 | 0.02 | 100 | 1011.7 |
| 20260509121552 | 73 | 19 | 1.0 | 6.0 | 0.01 | 0.01 | 0.01 | 100 | 1012.4 |
| 20260509120048 | 73 | 41 | 1.0 | 5.0 | 0.00 | 0.00 | 0.00 | 100 | 1012.3 |
| 20260509114549 | 73 | 40 | 2.0 | 10.0 | 0.00 | 0.00 | 0.00 | 100 | 1012.1 |
| 20260509113044 | 73 | 30 | 1.0 | 8.0 | 0.00 | 0.00 | 0.00 | 100 | 1011.8 |
| 20260509111543 | 73 | 68 | 0.0 | 3.0 | 0.00 | 0.00 | 0.00 | 100 | 1011.2 |
| 20260509110045 | 73 | 68 | 0.0 | 3.0 | 0.00 | 0.00 | 0.00 | 100 | 1010.7 |
| 20260509104559 | 73 | 77 | 1.0 | 3.0 | 0.00 | 0.00 | 0.00 | 100 | 1010.9 |
| 20260509103042 | 73 | 61 | 1.0 | 3.0 | 0.00 | 0.00 | 0.00 | 100 | 1011.2 |
| 20260509101540 | 73 | 50 | 0.0 | 4.0 | 0.00 | 0.00 | 0.00 | 100 | 1011.3 |
| 20260509100040 | 73 | 30 | 0.0 | 3.0 | 0.00 | 0.00 | 0.00 | 100 | 1011.3 |
| 20260509094539 | 73 | 32 | 0.0 | 4.0 | 0.00 | 0.00 | 0.00 | 100 | 1011.3 |
| 20260509093040 | 73 | 71 | 1.0 | 4.0 | 0.00 | 0.00 | 0.00 | 100 | 1010.8 |
| 20260509091543 | 73 | 78 | 2.0 | 4.0 | 0.00 | 0.00 | 0.00 | 100 | 1010.9 |
| 20260509090049 | 73 | 80 | 3.0 | 8.0 | 0.00 | 0.00 | 0.00 | 100 | 1010.2 |
| 20260509084537 | 73 | 146 | 0.0 | 0.0 | 0.00 | 0.00 | 0.00 | 100 | 1010.5 |
| 20260509083035 | 73 | 145 | 0.0 | 2.0 | 0.00 | 0.00 | 0.00 | 100 | 1011.0 |
| 20260509081547 | 73 | 153 | 0.0 | 2.0 | 0.00 | 0.00 | 0.00 | 100 | 1010.4 |
| 20260509080035 | 73 | 150 | 0.0 | 5.0 | 0.00 | 0.00 | 0.00 | 100 | 1010.7 |
| 20260509074532 | 73 | 171 | 0.0 | 0.0 | 0.00 | 0.00 | 0.00 | 100 | 1010.7 |
| 20260509073043 | 73 | 171 | 0.0 | 1.0 | 0.00 | 0.00 | 0.00 | 100 | 1010.6 |
| 20260509071539 | 74 | 171 | 0.0 | 1.0 | 0.00 | 0.00 | 0.00 | 100 | 1010.9 |
| 20260509070040 | 73 | 165 | 2.0 | 10.0 | 0.00 | 0.00 | 0.00 | 100 | 1011.1 |
| 20260509064532 | 74 | 163 | 0.0 | 3.0 | 0.00 | 0.00 | 0.00 | 100 | 1010.9 |
| 20260509063053 | 73 | 155 | 0.0 | 5.0 | 0.00 | 0.00 | 0.00 | 99 | 1010.7 |
| 20260509061541 | 73 | 146 | 0.0 | 5.0 | 0.00 | 0.00 | 0.00 | 99 | 1011.0 |
| 20260509060040 | 73 | 146 | 0.0 | 5.0 | 0.00 | 0.00 | 0.00 | 99 | 1011.1 |
| 20260509054523 | 74 | 179 | 1.0 | 5.0 | 0.00 | 0.00 | 0.00 | 98 | 1011.3 |
| 20260509053023 | 74 | 159 | 0.0 | 5.0 | 0.00 | 0.00 | 0.00 | 98 | 1011.6 |
| 20260509050018 | 74 | 136 | 0.0 | 1.0 | 0.00 | 0.00 | 0.00 | 98 | 1011.5 |
| 20260509044521 | 74 | 136 | 0.0 | 2.0 | 0.00 | 0.00 | 0.00 | 98 | 1011.4 |
| 20260509043017 | 74 | 135 | 1.0 | 3.0 | 0.00 | 0.00 | 0.00 | 97 | 1011.1 |
| 20260509041517 | 74 | 134 | 1.0 | 3.0 | 0.00 | 0.00 | 0.00 | 97 | 1011.0 |
| 20260509040018 | 74 | 131 | 2.0 | 3.0 | 0.00 | 0.00 | 0.00 | 97 | 1011.1 |
| 20260509034515 | 74 | 128 | 0.0 | 2.0 | 0.00 | 0.00 | 0.00 | 97 | 1011.2 |
| 20260509033017 | 74 | 125 | 0.0 | 1.0 | 0.00 | 0.00 | 0.00 | 96 | 1011.1 |
| 20260509031513 | 75 | 125 | 0.0 | 3.0 | 0.00 | 0.00 | 0.00 | 96 | 1011.0 |
| 20260509030013 | 75 | 117 | 0.0 | 2.0 | 0.00 | 0.00 | 0.00 | 95 | 1010.5 |
| 20260509024516 | 75 | 114 | 1.0 | 4.0 | 0.00 | 0.00 | 0.00 | 95 | 1010.2 |
| 20260509023012 | 76 | 127 | 1.0 | 3.0 | 0.00 | 0.00 | 0.00 | 94 | 1010.3 |
| 20260509021512 | 76 | 118 | 0.0 | 3.0 | 0.00 | 0.00 | 0.00 | 94 | 1010.3 |
| 20260509020020 | 76 | 115 | 1.0 | 3.0 | 0.00 | 0.00 | 0.00 | 94 | 1010.0 |
| 20260509014532 | 76 | 108 | 0.0 | 0.0 | 0.00 | 0.00 | 0.00 | 94 | 1009.8 |
| 20260509013011 | 77 | 108 | 0.0 | 3.0 | 0.00 | 0.00 | 0.00 | 93 | 1009.8 |
| 20260509011509 | 77 | 106 | 0.0 | 4.0 | 0.00 | 0.00 | 0.00 | 93 | 1009.5 |